Zurück zum Katalog

STARLINK-37023

AktivKommunikationVLEO
NORAD 68076·PAYLOAD·🇺🇸 United States

Gestartet Mar 4, 2026 von Vandenberg Space Force Base

Loading…

Nächste Überflüge (nächste 24 Stunden)

TLE

AktuellSource: CelesTrak SupGP

Epoche: Sep 15, 2026, 03:03 UTC

1 68076C 26042H   26258.12756944  .00052682  00000+0  15565-2 0  2586
2 68076  53.1605  14.9243 0001191  90.5778 272.0242 15.34363828    13

Verfolge STARLINK-37023 in Echtzeit mit AllMySat

Download on the App Store